GW2582 Weather Reports


Display with metric or nautical units.
time (UTC)temp
F
wind
direction
speed
MPH
gust
MPH
rain 1hr
in
rain 24hr
in
rain mn
in
humidity
%
barometer
mb
20260906200048 87 113 4.0 7.0 0.00 0.00 0.00 60 1014.8
20260906194547 85 101 4.0 7.0 0.00 0.00 0.00 62 1014.9
20260906193055 85 102 4.0 8.0 0.00 0.00 0.00 63 1015.1
20260906191554 84 91 4.0 7.0 0.00 0.00 0.00 66 1015.4
20260906190051 84 103 4.0 9.0 0.00 0.00 0.00 65 1015.7
20260906184548 84 106 4.0 9.0 0.00 0.00 0.00 67 1016.0
20260906183113 81 84 3.0 9.0 0.00 0.00 0.00 73 1016.4
20260906181555 80 65 3.0 8.0 0.00 0.00 0.00 72 1016.6
20260906180111 79 77 3.0 9.0 0.00 0.00 0.00 73 1016.9
20260906174547 79 91 2.0 6.0 0.00 0.00 0.00 76 1017.4
20260906173056 78 80 2.0 5.0 0.00 0.00 0.00 77 1017.6
20260906171550 77 28 2.0 5.0 0.00 0.00 0.00 79 1017.9
20260906170049 76 53 1.0 4.0 0.00 0.00 0.00 83 1018.2
20260906164547 75 31 2.0 4.0 0.00 0.00 0.00 85 1018.3
20260906163101 74 35 1.0 4.0 0.00 0.00 0.00 86 1018.5
20260906161557 73 0 0.0 2.0 0.00 0.00 0.00 86 1018.8
20260906160049 73 355 0.0 2.0 0.00 0.00 0.00 86 1018.6
20260906154557 73 0 0.0 2.0 0.00 0.00 0.00 86 1018.3
20260906153050 72 23 0.0 3.0 0.00 0.00 0.00 86 1018.3
20260906151552 72 29 0.0 2.0 0.00 0.00 0.00 86 1018.3
20260906150104 72 0 0.0 3.0 0.00 0.00 0.00 86 1018.2
20260906144602 73 70 1.0 5.0 0.00 0.00 0.00 85 1018.2
20260906143054 73 56 1.0 5.0 0.00 0.00 0.00 84 1018.5
20260906141551 74 359 2.0 6.0 0.00 0.00 0.00 82 1018.3
20260906140058 73 28 3.0 8.0 0.00 0.00 0.00 82 1018.1
20260906134559 74 46 2.0 6.0 0.00 0.00 0.00 79 1018.1
20260906133053 75 45 3.0 6.0 0.00 0.00 0.00 74 1017.9
20260906131549 76 310 2.0 6.0 0.00 0.00 0.00 72 1017.8
20260906130106 75 289 3.0 9.0 0.00 0.00 0.00 72 1017.6
20260906124555 72 288 2.0 7.0 0.00 0.00 0.00 79 1017.2
20260906123052 70 0 0.0 0.0 0.00 0.00 0.00 82 1016.6
20260906121555 70 0 0.0 0.0 0.00 0.00 0.00 82 1016.1
20260906120059 70 0 0.0 0.0 0.00 0.00 0.00 81 1015.9
20260906114610 70 0 0.0 0.0 0.00 0.00 0.00 80 1015.7
20260906113056 71 0 0.0 0.0 0.00 0.00 0.00 77 1015.4
20260906111549 72 0 0.0 2.0 0.00 0.00 0.00 76 1015.1
20260906110047 72 0 0.0 3.0 0.00 0.00 0.00 76 1014.7
20260906104555 73 132 0.0 2.0 0.00 0.00 0.00 75 1014.5
20260906103051 74 131 2.0 4.0 0.00 0.00 0.00 74 1014.5
20260906101547 74 188 1.0 5.0 0.00 0.00 0.00 74 1014.6
20260906100056 74 156 1.0 2.0 0.00 0.00 0.00 74 1014.7
20260906094550 74 0 0.0 5.0 0.00 0.00 0.00 74 1014.7
20260906093051 74 136 0.0 3.0 0.00 0.00 0.00 74 1014.5
20260906091550 74 138 0.0 1.0 0.00 0.00 0.00 74 1014.6
20260906090048 74 0 0.0 2.0 0.00 0.00 0.00 75 1014.6
20260906084551 75 113 0.0 2.0 0.00 0.00 0.00 73 1014.5
20260906083050 75 121 1.0 2.0 0.00 0.00 0.00 73 1014.5
20260906081556 73 115 0.0 2.0 0.00 0.00 0.00 77 1014.6
20260906080047 70 0 0.0 0.0 0.00 0.00 0.00 84 1014.7
20260906074609 71 0 0.0 0.0 0.00 0.00 0.00 84 1014.8
20260906073051 72 0 0.0 0.0 0.00 0.00 0.00 82 1014.8
20260906071548 73 0 0.0 0.0 0.00 0.00 0.00 81 1014.7
20260906070048 72 0 0.0 0.0 0.00 0.00 0.00 83 1014.7
20260906064555 71 0 0.0 0.0 0.00 0.00 0.00 85 1014.6
20260906063050 71 0 0.0 0.0 0.00 0.00 0.00 84 1014.6
20260906061610 72 0 0.0 1.0 0.00 0.00 0.00 82 1014.5
20260906060048 72 0 0.0 1.0 0.00 0.00 0.00 83 1014.2
20260906054551 72 0 0.0 1.0 0.00 0.00 0.00 83 1014.2
20260906053051 73 0 0.0 1.0 0.00 0.00 0.00 81 1014.0
20260906051559 73 0 0.0 0.0 0.00 0.00 0.00 80 1014.1
20260906050054 74 0 0.0 1.0 0.00 0.00 0.00 78 1014.2
20260906044552 75 108 0.0 1.0 0.00 0.00 0.00 76 1014.2
20260906043049 75 117 0.0 1.0 0.00 0.00 0.00 77 1014.3
20260906041549 75 0 0.0 1.0 0.00 0.00 0.00 77 1014.5
20260906040057 76 0 0.0 1.0 0.00 0.00 0.00 77 1014.5
20260906034551 75 0 0.0 1.0 0.00 0.00 0.00 77 1014.5
20260906033052 76 0 0.0 0.0 0.00 0.00 0.00 77 1014.4
20260906031602 76 0 0.0 1.0 0.00 0.00 0.00 77 1014.3
20260906030053 76 0 0.0 2.0 0.00 0.00 0.00 77 1014.2
20260906024551 76 0 0.0 1.0 0.00 0.00 0.00 77 1014.2
20260906023050 76 0 0.0 1.0 0.00 0.00 0.00 77 1013.8
20260906021550 76 131 0.0 1.0 0.00 0.00 0.00 76 1013.5
20260906020057 77 0 0.0 2.0 0.00 0.00 0.00 73 1013.6
20260906014555 79 97 0.0 2.0 0.00 0.00 0.00 70 1013.4
20260906013054 79 183 1.0 2.0 0.00 0.00 0.00 70 1013.2
20260906011553 81 0 0.0 0.0 0.00 0.00 0.00 65 1012.8
20260906010054 83 0 0.0 3.0 0.00 0.00 0.00 62 1012.8
20260906004548 85 164 1.0 4.0 0.00 0.00 0.00 59 1013.0
20260906003054 86 213 2.0 5.0 0.00 0.00 0.00 57 1012.9
20260906001551 87 221 2.0 4.0 0.00 0.00 0.00 57 1013.0
20260906000050 86 145 2.0 5.0 0.00 0.00 0.00 58 1013.1
20260905234547 86 175 2.0 6.0 0.00 0.00 0.00 58 1013.2
20260905233053 85 212 2.0 7.0 0.00 0.00 0.00 57 1013.2
20260905231549 84 145 2.0 7.0 0.00 0.00 0.00 55 1013.2
20260905230054 84 116 4.0 7.0 0.00 0.00 0.00 56 1013.4
20260905224603 83 118 4.0 7.0 0.00 0.00 0.00 59 1013.3
20260905223050 83 124 8.0 14.0 0.00 0.00 0.00 58 1013.4
20260905221604 82 105 6.0 12.0 0.00 0.00 0.00 62 1013.6
20260905220107 83 145 4.0 11.0 0.00 0.00 0.00 56 1013.5
20260905214550 80 120 6.0 16.0 0.00 0.00 0.00 60 1013.5
20260905213052 77 114 7.0 13.0 0.00 0.00 0.00 73 1013.4
20260905211603 79 113 4.0 16.0 0.00 0.00 0.00 71 1013.5
20260905210104 79 61 2.0 5.0 0.00 0.00 0.00 72 1013.7
20260905204556 79 91 3.0 10.0 0.00 0.00 0.00 71 1013.7
20260905203111 77 36 9.0 21.0 0.00 0.00 0.00 72 1013.5
20260905201549 87 37 4.0 8.0 0.00 0.00 0.00 55 1013.3